Probability
3 3 6 6 6 3 0 0 0 0 6 6 6 6 3 10 16 29 32 71 87 90 90 97 94 94 94 100 100 87 87 87 97 87 81 71 58 58 39 32 26 23 10
3 3 3 3 6 3 0 0 0 0 3 6 6 6 3 10 10 19 26 39 81 84 90 94 87 94 94 94 94 90 94 97 100 94 90 84 84 58 48 45 32 16 13
0 3 0 0 0 0 0 0 0 0 0 0 3 10 6 6 10 13 16 26 35 55 74 77 84 87 84 81 87 90 94 97 97 94 90 90 90 77 68 65 52 29 10
0 0 0 0 0 0 0 0 0 0 0 0 0 0 3 10 6 6 13 19 32 39 52 71 74 74 65 61 65 71 87 94 87 97 90 90 87 81 58 61 55 42 3
3 0 0 0 0 0 0 0 0 0 0 0 0 0 0 0 3 3 6 16 16 23 29 35 61 65 52 45 45 55 74 84 90 84 77 74 71 74 58 55 48 29 6
3 0 0 0 0 0 0 0 0 0 0 0 0 0 0 0 0 0 3 6 6 6 13 16 29 23 48 52 48 52 45 61 74 74 68 61 58 58 42 32 19 16 16
3 0 0 0 0 0 0 0 0 0 0 0 0 0 0 0 0 0 0 3 6 6 6 13 16 16 19 19 26 48 52 39 55 68 68 61 58 52 35 26 13 13 13
0 0 0 0 0 0 0 0 0 0 0 0 0 0 0 0 0 0 0 0 0 0 6 3 6 13 13 13 6 13 35 35 39 42 58 52 52 42 29 23 19 10 6
3 0 0 0 0 0 0 0 0 0 0 0 0 0 0 0 0 0 0 0 0 0 0 0 3 0 3 3 3 3 23 26 29 26 45 39 29 23 16 16 16 13 6
3 0 0 0 0 0 0 0 0 0 0 0 0 0 0 0 0 0 0 0 0 0 0 0 0 0 0 3 3 3 3 10 19 23 29 26 29 10 13 16 23 26 13
3 3 0 0 0 0 0 0 0 0 0 0 0 0 0 0 0 0 0 0 0 0 0 0 0 0 0 0 3 3 0 3 3 13 13 10 16 13 6 10 16 19 23
0 0 3 0 0 0 0 0 0 0 0 0 0 0 0 0 0 0 0 0 0 0 0 0 0 0 0 0 0 0 0 0 0 0 0 3 3 3 10 3 6 6 13
0 0 0 0 0 0 0 0 0 0 0 0 0 0 0 0 0 0 0 0 0 0 0 0 0 0 0 0 0 0 0 0 0 0 0 0 0 0 3 0 3 3 3
0 0 0 0 0 0 0 0 0 0 0 0 0 0 0 0 0 0 0 0 0 0 0 0 0 0 0 0 0 0 0 0 0 0 0 0 0 0 0 0 0 0 0
0 0 0 0 0 0 0 0 0 0 0 0 0 0 0 0 0 0 0 0 0 0 0 0 0 0 0 0 0 0 0 0 0 0 0 0 0 0 0 0 0 0 0
0 0 0 0 0 0 0 0 0 0 0 0 0 0 0 0 0 0 0 0 0 0 0 0 0 0 0 0 0 0 0 0 0 0 0 0 0 0 0 0 0 0 0
0 0 0 0 0 0 0 0 0 0 0 0 0 0 0 0 0 0 0 0 0 0 0 0 0 0 0 0 0 0 0 0 0 0 0 0 0 0 0 0 0 0 0
0 3 3 0 0 0 0 0 0 0 0 0 0 0 0 0 0 0 0 0 0 0 0 0 0 0 0 0 0 0 0 0 0 0 0 0 0 0 0 0 0 0 0
0 0 0 0 0 0 0 0 0 0 0 0 0 0 0 0 0 0 0 0 0 0 0 0 0 0 0 0 0 0 0 0 0 0 0 0 0 0 0 0 0 0 0
0 0 0 0 0 0 0 0 0 0 0 0 0 0 0 0 0 0 0 0 0 0 0 0 0 0 0 0 0 0 0 0 0 0 0 0 0 0 0 0 0 0 0
0 0 0 0 0 0 0 0 0 0 0 0 0 0 0 0 0 0 0 0 0 0 0 0 0 0 0 0 0 0 0 0 0 0 0 0 0 0 0 0 0 0 0
0 0 0 0 0 0 0 0 0 0 0 0 0 0 0 0 0 0 0 0 0 0 0 0 0 0 0 0 0 0 0 0 0 0 0 0 0 0 0 0 0 0 0
0 0 0 0 0 0 0 0 0 0 0 0 0 0 0 0 0 0 0 0 0 0 0 0 0 0 0 0 0 0 0 0 0 0 0 0 0 0 0 0 0 0 0
0 3 0 0 3 0 0 0 0 0 0 0 0 0 0 0 0 0 0 0 0 0 0 0 0 0 0 0 0 0 0 0 0 0 0 0 0 0 0 0 0 0 0
3 0 0 0 0 0 0 0 0 0 0 0 0 0 0 0 0 0 0 0 0 0 0 0 0 0 0 0 0 0 0 0 0 0 0 0 0 0 0 0 0 0 0
0 0 0 0 0 0 0 0 0 0 0 0 0 0 0 0 0 0 0 0 0 0 0 0 0 0 0 0 0 0 0 0 0 0 0 0 0 0 0 0 0 0 0
Height
5878 5878 5878 5879 5880 5880 5880 5880 5881 5881 5882 5882 5882 5882 5882 5883 5883 5884 5884 5884 5884 5885 5885 5886 5887 5888 5889 5890 5892 5893 5894 5895 5896 5897 5898 5899 5901 5902 5902 5903 5904 5905 5905
5876 5877 5877 5878 5879 5879 5879 5880 5880 5881 5881 5881 5882 5882 5882 5882 5883 5883 5883 5883 5883 5884 5884 5885 5886 5887 5887 5888 5889 5890 5891 5892 5893 5895 5896 5897 5898 5900 5901 5902 5902 5903 5904
5875 5876 5876 5877 5878 5878 5878 5879 5880 5880 5881 5881 5881 5881 5882 5882 5882 5882 5882 5882 5883 5883 5883 5884 5884 5885 5885 5886 5887 5888 5889 5890 5891 5892 5893 5895 5896 5897 5898 5899 5900 5901 5902
5874 5874 5875 5876 5877 5878 5878 5879 5880 5880 5880 5881 5881 5881 5881 5881 5882 5882 5882 5882 5882 5882 5882 5882 5883 5883 5884 5884 5885 5886 5886 5887 5888 5889 5890 5892 5893 5894 5895 5897 5898 5899 5900
5872 5873 5874 5875 5876 5877 5878 5879 5879 5880 5880 5881 5881 5881 5881 5881 5881 5881 5882 5882 5881 5881 5881 5881 5882 5882 5882 5883 5883 5884 5884 5885 5886 5887 5888 5889 5890 5891 5892 5893 5895 5896 5897
5871 5872 5874 5875 5876 5877 5878 5879 5879 5880 5880 5880 5881 5881 5881 5881 5881 5881 5881 5881 5881 5881 5881 5881 5881 5881 5881 5881 5882 5882 5882 5883 5883 5884 5885 5886 5887 5888 5889 5890 5891 5892 5894
5870 5872 5873 5874 5875 5876 5877 5878 5879 5880 5880 5880 5881 5881 5881 5881 5881 5881 5881 5881 5881 5881 5881 5880 5880 5880 5880 5880 5880 5881 5881 5881 5881 5882 5882 5883 5883 5884 5885 5886 5887 5888 5890
5868 5871 5872 5874 5875 5876 5877 5878 5879 5879 5879 5880 5880 5881 5881 5882 5881 5881 5881 5881 5881 5880 5880 5880 5880 5880 5880 5879 5879 5879 5879 5879 5880 5880 5880 5880 5881 5881 5882 5883 5883 5884 5886
5867 5869 5871 5872 5874 5875 5876 5877 5878 5879 5879 5879 5880 5881 5881 5881 5881 5881 5881 5881 5880 5880 5880 5879 5879 5879 5879 5878 5878 5878 5878 5878 5878 5878 5878 5878 5878 5878 5879 5879 5880 5881 5882
5866 5868 5870 5871 5873 5874 5875 5876 5877 5878 5878 5879 5879 5880 5880 5880 5880 5881 5881 5880 5880 5879 5879 5879 5878 5878 5878 5877 5877 5877 5876 5876 5876 5876 5876 5876 5875 5875 5876 5876 5876 5877 5878
5864 5866 5868 5870 5871 5873 5874 5875 5876 5877 5877 5878 5878 5879 5879 5879 5879 5879 5880 5879 5879 5878 5878 5877 5877 5876 5876 5875 5875 5875 5874 5874 5874 5874 5873 5873 5873 5873 5873 5873 5873 5873 5874
5862 5864 5866 5868 5869 5871 5872 5873 5874 5875 5876 5876 5877 5877 5878 5878 5878 5878 5878 5877 5877 5877 5876 5875 5875 5874 5874 5873 5873 5872 5872 5871 5871 5871 5870 5870 5870 5870 5870 5869 5869 5869 5870
5860 5862 5864 5866 5868 5869 5870 5871 5872 5873 5874 5874 5875 5875 5875 5876 5876 5876 5875 5875 5875 5874 5874 5873 5872 5871 5871 5870 5870 5869 5869 5868 5868 5867 5867 5867 5866 5866 5866 5866 5865 5865 5865
5858 5860 5862 5864 5865 5866 5868 5869 5869 5870 5871 5871 5872 5872 5872 5872 5872 5872 5872 5872 5872 5871 5870 5870 5869 5868 5867 5867 5866 5866 5865 5864 5864 5864 5863 5863 5862 5862 5861 5861 5861 5861 5861
5856 5858 5859 5861 5862 5863 5864 5865 5866 5867 5867 5868 5868 5868 5869 5869 5869 5868 5868 5868 5868 5867 5866 5866 5865 5864 5863 5862 5862 5861 5860 5860 5859 5859 5858 5858 5857 5857 5856 5856 5856 5855 5855
5853 5855 5856 5857 5859 5860 5861 5861 5862 5863 5863 5863 5864 5864 5864 5864 5863 5863 5863 5863 5862 5862 5861 5860 5859 5858 5857 5857 5856 5856 5855 5854 5854 5853 5852 5852 5851 5851 5850 5850 5850 5849 5849
5850 5851 5853 5854 5855 5855 5856 5857 5857 5858 5858 5858 5858 5858 5858 5858 5857 5857 5857 5856 5856 5856 5855 5854 5853 5852 5851 5850 5849 5849 5848 5847 5847 5846 5846 5845 5845 5844 5844 5843 5843 5842 5842
5846 5848 5849 5850 5850 5851 5851 5852 5852 5852 5852 5852 5852 5852 5851 5851 5850 5850 5849 5849 5849 5848 5848 5847 5846 5845 5844 5842 5842 5841 5840 5839 5839 5838 5838 5837 5837 5836 5836 5835 5835 5834 5834
5842 5843 5844 5845 5845 5845 5845 5846 5846 5846 5845 5845 5844 5844 5843 5843 5842 5842 5841 5841 5840 5840 5839 5839 5837 5836 5835 5834 5833 5832 5831 5830 5830 5829 5829 5828 5827 5827 5826 5826 5826 5825 5825
5838 5838 5839 5839 5839 5839 5839 5839 5838 5838 5837 5837 5836 5835 5835 5834 5833 5832 5832 5832 5831 5830 5829 5829 5828 5827 5825 5824 5823 5822 5821 5820 5820 5819 5818 5817 5817 5816 5816 5816 5815 5815 5814
5832 5833 5833 5833 5832 5832 5831 5831 5830 5830 5829 5828 5827 5826 5825 5824 5823 5822 5822 5821 5820 5819 5818 5817 5817 5816 5815 5813 5811 5811 5810 5810 5809 5808 5807 5806 5805 5805 5804 5804 5803 5803 5802
5827 5827 5826 5826 5825 5824 5823 5823 5822 5821 5819 5818 5817 5816 5815 5814 5813 5812 5810 5809 5808 5807 5806 5805 5804 5804 5803 5801 5799 5799 5798 5797 5797 5797 5794 5794 5793 5793 5792 5791 5790 5790 5789
5821 5820 5819 5818 5817 5816 5815 5813 5811 5810 5809 5808 5806 5805 5803 5802 5801 5800 5799 5797 5796 5794 5793 5792 5791 5791 5790 5788 5787 5786 5784 5783 5783 5783 5781 5782 5780 5779 5778 5777 5776 5776 5776
5813 5812 5811 5809 5808 5806 5804 5803 5802 5800 5798 5797 5795 5793 5792 5791 5789 5787 5786 5785 5783 5781 5780 5778 5777 5776 5775 5773 5772 5771 5769 5768 5768 5768 5765 5765 5766 5765 5764 5762 5762 5761 5760
5805 5804 5802 5801 5799 5797 5795 5793 5791 5789 5787 5785 5783 5781 5780 5778 5776 5775 5773 5771 5769 5767 5765 5764 5763 5761 5759 5757 5755 5754 5753 5752 5752 5752 5749 5748 5748 5748 5748 5748 5746 5744 5743
5796 5795 5793 5791 5789 5787 5785 5782 5780 5777 5775 5773 5771 5769 5767 5765 5763 5761 5759 5757 5756 5754 5751 5749 5747 5745 5743 5741 5739 5737 5735 5734 5733 5734 5733 5730 5729 5727 5729 5731 5729 5727 5725
Wind_Speed
6 5 5 6 5 4 3 3 3 2 2 2 2 2 3 3 3 3 3 4 5 6 7 8 9 9 9 10 10 10 10 11 11 11 11 11 10 9 8 8 7 6 5
6 6 5 5 4 3 2 2 2 1 1 2 2 2 2 2 2 2 2 3 4 5 6 8 9 9 10 10 11 11 11 11 12 12 13 12 12 12 11 10 9 9 8
7 6 5 5 4 3 2 2 1 1 1 1 2 2 1 1 2 2 2 3 4 5 5 6 8 9 9 10 11 12 12 12 12 13 14 14 14 14 14 13 12 11 10
7 6 6 5 4 3 2 1 1 1 1 1 1 1 1 1 1 1 2 2 3 4 4 5 6 7 9 9 10 11 12 12 12 13 13 14 15 15 16 16 15 14 13
8 6 6 5 4 3 2 2 2 1 1 1 1 1 1 1 1 1 1 1 2 3 3 4 5 6 7 8 9 10 11 11 12 13 13 14 15 16 16 17 17 17 16
9 8 7 6 5 4 3 2 2 1 1 1 1 1 1 0 0 0 0 0 1 1 2 3 4 4 5 6 7 8 9 10 11 12 13 14 15 16 16 17 18 18 18
10 9 8 7 6 5 4 3 2 2 1 1 1 1 1 1 1 1 0 0 1 1 1 2 3 3 4 5 5 6 7 8 9 10 11 12 14 15 16 16 18 19 19
11 11 9 8 7 6 5 4 2 2 1 1 1 1 1 1 1 1 1 1 1 1 2 2 2 3 4 5 5 6 6 7 8 9 9 11 12 13 15 16 17 18 19
13 12 10 9 8 6 5 5 3 3 2 1 1 1 1 1 2 2 2 2 2 2 2 2 3 3 4 5 5 6 6 7 8 8 9 9 11 12 13 15 16 18 19
14 12 11 10 9 7 6 6 5 4 3 3 2 2 2 2 3 3 3 3 3 3 3 4 4 5 5 6 6 7 7 8 8 9 9 10 11 11 12 14 15 16 18
14 13 12 11 10 9 8 7 7 6 5 5 4 4 4 4 5 5 5 6 6 6 6 6 6 7 7 8 8 9 9 10 10 10 11 11 11 12 13 13 14 16 17
14 14 13 12 11 10 10 9 9 8 8 7 7 7 7 7 8 8 8 9 8 8 9 9 9 9 9 9 10 10 11 11 11 12 12 13 13 14 14 14 15 16 17
14 14 13 13 12 12 11 11 11 11 11 10 10 11 11 11 11 11 11 12 12 12 12 12 12 13 13 13 13 13 13 13 13 14 14 14 15 15 15 16 16 17 18
14 14 14 14 13 13 13 13 13 13 13 14 14 14 14 14 15 14 15 15 15 16 16 16 16 16 16 16 16 16 16 16 17 17 17 17 17 18 18 18 19 19 20
15 15 15 15 15 15 15 16 16 16 16 17 17 17 17 18 18 18 18 19 19 19 19 19 20 20 20 20 20 20 20 20 20 20 20 21 21 21 21 21 21 21 22
16 16 17 17 17 17 18 18 18 19 19 20 20 21 21 21 21 21 21 22 22 22 23 23 23 23 23 23 23 23 23 24 24 24 24 24 24 24 24 24 24 25 25
17 18 19 19 20 20 20 21 21 22 22 23 23 24 24 24 25 25 25 25 25 25 26 26 26 26 27 27 27 27 27 27 28 28 28 28 28 28 28 28 28 28 28
19 20 20 21 22 23 23 24 24 25 26 26 27 27 28 28 28 28 28 28 28 28 28 29 29 30 30 30 30 31 31 31 31 31 31 31 31 32 32 32 32 32 32
21 21 22 23 24 25 26 26 27 27 29 30 30 30 31 31 32 32 32 32 32 32 32 32 33 34 34 34 35 35 35 35 35 35 35 35 35 35 35 35 36 36 36
22 23 24 25 26 26 27 29 30 31 32 33 33 34 35 34 34 34 35 35 36 36 36 36 36 37 37 38 38 39 39 39 39 39 39 39 39 39 39 39 39 39 39
23 24 26 27 28 29 30 31 33 34 35 36 37 37 37 37 37 37 38 38 39 39 40 40 39 40 40 41 41 42 41 41 41 42 42 42 43 42 42 42 43 43 43
24 25 27 29 31 32 33 34 35 36 38 38 39 40 40 40 41 41 41 42 42 43 43 43 43 43 42 44 44 45 45 44 44 43 45 45 45 45 45 45 46 46 46
26 27 29 31 32 34 35 36 38 39 40 41 42 43 43 43 43 44 45 45 45 46 46 47 47 46 46 46 48 48 49 49 48 47 48 47 47 48 48 49 49 49 49
28 29 31 32 34 35 36 37 38 40 41 43 44 45 45 46 46 46 47 48 49 49 50 50 50 50 50 51 52 52 52 52 52 51 52 51 50 51 52 52 53 53 53
31 32 33 34 35 36 36 38 39 40 42 43 44 45 45 46 46 48 49 49 50 51 52 52 52 53 53 54 55 55 55 55 55 54 55 56 55 56 55 55 56 57 58
33 33 35 36 37 38 39 41 42 43 44 45 45 45 46 47 48 49 50 50 50 51 52 52 53 54 55 56 57 58 59 60 60 59 60 61 61 62 60 59 60 61 62
Wind_Direction
251 260 269 279 284 285 288 296 298 286 273 256 252 259 262 264 260 251 245 248 246 237 232 228 228 232 234 235 235 237 239 237 235 232 232 233 235 235 235 236 240 244 246
248 253 261 272 272 271 277 282 281 276 240 227 234 239 246 265 267 244 242 252 243 235 234 234 236 239 240 241 238 239 241 240 237 235 235 236 238 239 239 239 241 246 248
241 244 249 253 251 250 259 264 266 245 220 217 226 228 245 266 277 255 252 263 254 242 239 238 238 242 244 243 240 239 241 240 241 241 240 241 242 242 242 243 245 247 249
231 233 235 232 233 235 236 235 212 198 194 197 203 217 226 253 272 276 277 275 265 250 241 239 240 244 247 249 248 245 243 243 244 245 244 243 244 245 246 245 246 247 249
224 220 219 216 214 210 199 179 155 138 142 152 161 191 215 244 254 274 282 290 278 256 243 241 244 249 250 252 255 254 252 250 249 245 245 245 246 247 248 248 247 247 247
217 215 215 212 205 202 197 192 189 188 172 159 154 180 193 170 168 169 234 286 298 269 252 249 253 256 256 256 258 258 259 256 253 249 249 248 248 250 251 249 248 247 247
214 211 211 210 207 205 203 201 206 205 186 178 180 185 188 186 173 161 163 214 268 284 287 279 273 265 266 266 263 262 263 260 260 257 255 254 253 253 253 252 250 249 248
211 209 210 210 209 208 209 209 205 210 203 194 192 187 195 205 220 233 240 263 280 282 288 293 290 281 278 274 270 266 266 264 266 264 262 260 259 257 255 253 252 251 250
212 211 210 212 212 210 214 216 213 220 216 203 198 207 213 228 243 256 265 276 287 293 290 288 287 285 280 279 274 274 275 273 270 270 268 267 266 262 260 257 253 252 253
215 213 212 215 216 219 224 228 230 233 232 226 225 231 240 252 259 259 261 267 275 285 290 289 287 285 283 281 276 274 275 275 275 274 274 272 270 268 266 262 257 255 256
216 216 216 219 222 226 231 236 239 240 239 240 245 249 255 262 266 268 266 267 270 275 281 283 284 283 281 279 277 276 275 274 274 275 275 273 272 271 269 268 264 260 260
217 218 219 223 227 231 235 239 242 244 246 249 254 260 264 267 270 273 274 272 270 272 276 278 280 280 279 278 277 276 276 276 276 276 275 273 272 271 270 269 268 267 265
220 222 224 228 233 237 239 243 246 249 252 255 259 264 268 271 273 274 274 273 273 274 276 277 278 280 279 277 277 276 275 275 276 276 275 274 273 272 271 270 270 269 267
225 228 230 233 238 242 245 248 251 254 258 260 263 266 270 272 273 274 274 273 272 273 275 277 278 278 279 278 277 276 274 274 274 275 275 274 273 272 271 271 271 270 269
230 234 237 240 244 247 250 253 255 258 261 264 265 268 270 273 274 275 275 274 274 274 274 276 276 277 277 276 276 274 273 273 273 273 273 274 273 273 272 271 271 270 269
239 242 244 246 249 252 255 258 259 262 264 266 267 269 270 272 273 274 275 274 275 275 275 275 275 275 276 275 275 274 274 274 273 272 272 272 272 272 272 272 271 271 270
245 249 250 251 253 256 259 261 263 265 267 268 269 270 271 272 272 273 273 273 273 273 274 274 274 274 275 275 274 274 274 273 273 273 272 272 272 272 271 271 271 271 271
251 253 255 257 260 261 262 264 265 267 269 270 271 272 273 273 273 273 272 272 272 272 273 273 273 273 273 274 274 273 273 273 273 272 272 272 271 271 271 271 271 270 270
257 259 261 263 265 266 266 267 268 270 271 272 272 272 274 274 274 273 273 273 273 273 273 273 273 273 272 273 273 272 273 272 272 272 272 272 272 271 270 270 270 270 270
261 264 265 266 267 268 270 270 270 271 272 272 273 273 273 274 274 274 274 274 274 274 274 274 273 273 272 272 272 272 272 273 272 272 271 271 271 271 271 271 270 270 269
265 268 267 268 269 271 273 273 272 272 272 273 274 274 274 273 273 273 274 275 275 274 275 275 274 273 273 273 273 273 273 273 273 273 272 271 271 271 271 270 270 269 269
268 271 272 272 273 274 275 275 274 273 273 274 274 275 275 275 274 274 274 275 275 275 275 275 274 274 274 275 275 275 275 274 273 273 272 272 271 271 271 270 270 270 269
272 274 275 275 274 275 276 276 275 275 274 273 274 275 276 276 276 274 274 275 275 275 276 276 275 275 275 275 275 275 275 275 275 274 272 272 271 271 271 270 270 270 270
276 276 277 276 275 277 277 276 277 277 277 276 275 275 276 276 276 276 276 276 275 275 275 276 275 275 276 276 275 275 275 275 274 274 274 273 271 271 271 271 271 271 270
279 279 278 277 277 278 279 279 279 280 279 279 279 278 277 277 277 277 276 276 276 276 276 276 276 277 277 277 277 276 276 275 275 274 274 274 272 271 270 270 271 271 270
279 278 279 279 279 279 279 279 279 279 279 279 279 278 278 278 277 277 277 277 277 277 277 278 278 277 277 277 278 277 276 276 275 275 275 274 274 273 271 270 270 270 270